| time (UTC) | temp F | wind direction | speed knots | gust knots | rain 1hr in | rain 24hr in | rain mn in | humidity % | barometer mb |
| 20260506174503 | 54 | 359 | 3.5 | 7.8 | 0.00 | 0.00 | 0.00 | 79 | 1008.0 |
| 20260506173603 | 55 | 349 | 3.5 | 6.1 | 0.00 | 0.00 | 0.00 | 78 | 1008.1 |
| 20260506172704 | 55 | 356 | 3.5 | 7.8 | 0.00 | 0.00 | 0.00 | 78 | 1008.1 |
| 20260506171803 | 55 | 352 | 3.5 | 8.7 | 0.00 | 0.00 | 0.00 | 76 | 1007.9 |
| 20260506170903 | 55 | 2 | 3.5 | 8.7 | 0.00 | 0.00 | 0.00 | 77 | 1008.0 |
| 20260506170003 | 55 | 3 | 3.5 | 7.8 | 0.00 | 0.00 | 0.00 | 78 | 1007.9 |
| 20260506165403 | 55 | 355 | 3.5 | 7.0 | 0.00 | 0.00 | 0.00 | 78 | 1007.9 |
| 20260506164525 | 55 | 356 | 3.5 | 9.6 | 0.00 | 0.00 | 0.00 | 78 | 1007.8 |
| 20260506163603 | 56 | 356 | 4.3 | 7.8 | 0.00 | 0.00 | 0.00 | 77 | 1007.8 |
| 20260506162703 | 56 | 1 | 4.3 | 12.2 | 0.00 | 0.00 | 0.00 | 76 | 1007.6 |
| 20260506161803 | 56 | 1 | 4.3 | 12.2 | 0.00 | 0.00 | 0.00 | 75 | 1007.4 |
| 20260506160903 | 57 | 357 | 4.3 | 8.7 | 0.00 | 0.00 | 0.00 | 73 | 1007.6 |
| 20260506160024 | 57 | 352 | 4.3 | 10.4 | 0.00 | 0.00 | 0.00 | 72 | 1007.6 |
| 20260506155424 | 57 | 358 | 4.3 | 12.2 | 0.00 | 0.00 | 0.00 | 71 | 1007.6 |
| 20260506154503 | 57 | 352 | 4.3 | 9.6 | 0.00 | 0.00 | 0.00 | 71 | 1007.4 |
| 20260506153603 | 56 | 355 | 5.2 | 9.6 | 0.00 | 0.00 | 0.00 | 74 | 1007.6 |
| 20260506152703 | 56 | 357 | 4.3 | 10.4 | 0.00 | 0.00 | 0.00 | 75 | 1007.6 |
| 20260506151803 | 56 | 356 | 4.3 | 9.6 | 0.00 | 0.00 | 0.00 | 75 | 1007.6 |
| 20260506150903 | 56 | 352 | 4.3 | 9.6 | 0.00 | 0.00 | 0.00 | 75 | 1007.5 |
| 20260506150003 | 57 | 348 | 4.3 | 7.8 | 0.00 | 0.00 | 0.00 | 73 | 1007.5 |
| 20260506145424 | 57 | 352 | 4.3 | 8.7 | 0.00 | 0.00 | 0.00 | 73 | 1007.5 |
| 20260506144524 | 57 | 358 | 4.3 | 7.8 | 0.00 | 0.00 | 0.00 | 73 | 1007.6 |
| 20260506143603 | 57 | 6 | 5.2 | 9.6 | 0.00 | 0.00 | 0.00 | 73 | 1007.4 |
| 20260506142703 | 57 | 359 | 4.3 | 9.6 | 0.00 | 0.00 | 0.00 | 74 | 1007.5 |
| 20260506141803 | 58 | 360 | 4.3 | 9.6 | 0.00 | 0.00 | 0.00 | 72 | 1007.2 |
| 20260506140903 | 58 | 359 | 4.3 | 8.7 | 0.00 | 0.00 | 0.00 | 72 | 1007.3 |
| 20260506140003 | 57 | 3 | 4.3 | 12.2 | 0.00 | 0.00 | 0.00 | 72 | 1007.2 |
| 20260506135403 | 58 | 4 | 3.5 | 8.7 | 0.00 | 0.00 | 0.00 | 70 | 1007.2 |
| 20260506134503 | 58 | 7 | 4.3 | 12.2 | 0.00 | 0.00 | 0.00 | 70 | 1007.1 |
| 20260506133603 | 57 | 350 | 3.5 | 8.7 | 0.00 | 0.00 | 0.00 | 70 | 1007.2 |
| 20260506132703 | 57 | 360 | 4.3 | 9.6 | 0.00 | 0.00 | 0.00 | 71 | 1007.2 |
| 20260506131803 | 58 | 353 | 3.5 | 8.7 | 0.00 | 0.00 | 0.00 | 70 | 1007.3 |
| 20260506130903 | 57 | 357 | 3.5 | 8.7 | 0.00 | 0.00 | 0.00 | 72 | 1007.2 |
| 20260506130005 | 58 | 348 | 4.3 | 8.7 | 0.00 | 0.00 | 0.00 | 69 | 1007.1 |
| 20260506125424 | 57 | 355 | 3.5 | 8.7 | 0.00 | 0.00 | 0.00 | 72 | 1007.2 |
| 20260506124503 | 56 | 355 | 3.5 | 7.0 | 0.00 | 0.00 | 0.00 | 75 | 1007.2 |
| 20260506123603 | 57 | 1 | 3.5 | 7.8 | 0.00 | 0.00 | 0.00 | 75 | 1007.0 |
| 20260506122704 | 56 | 5 | 3.5 | 9.6 | 0.00 | 0.00 | 0.00 | 77 | 1007.1 |
| 20260506121824 | 56 | 358 | 4.3 | 8.7 | 0.00 | 0.00 | 0.00 | 77 | 1007.2 |
| 20260506120903 | 56 | 347 | 4.3 | 7.8 | 0.00 | 0.00 | 0.00 | 78 | 1007.1 |
| 20260506120003 | 55 | 349 | 3.5 | 9.6 | 0.00 | 0.00 | 0.00 | 79 | 1007.0 |
| 20260506115403 | 56 | 1 | 3.5 | 9.6 | 0.00 | 0.00 | 0.00 | 79 | 1007.0 |
| 20260506114503 | 55 | 345 | 3.5 | 7.8 | 0.00 | 0.00 | 0.00 | 79 | 1007.1 |
| 20260506113603 | 55 | 3 | 4.3 | 7.8 | 0.00 | 0.00 | 0.00 | 80 | 1007.3 |
| 20260506112703 | 55 | 4 | 4.3 | 10.4 | 0.00 | 0.00 | 0.00 | 80 | 1007.3 |
| 20260506111824 | 55 | 358 | 5.2 | 9.6 | 0.00 | 0.00 | 0.00 | 80 | 1007.1 |
| 20260506110905 | 56 | 4 | 3.5 | 8.7 | 0.00 | 0.00 | 0.00 | 79 | 1007.1 |
| 20260506110003 | 55 | 3 | 5.2 | 9.6 | 0.00 | 0.00 | 0.00 | 80 | 1007.0 |
| 20260506105404 | 54 | 359 | 4.3 | 8.7 | 0.00 | 0.00 | 0.00 | 80 | 1007.1 |
| 20260506104503 | 54 | 1 | 4.3 | 9.6 | 0.00 | 0.00 | 0.00 | 80 | 1007.0 |
| 20260506103603 | 54 | 4 | 3.5 | 7.8 | 0.00 | 0.00 | 0.00 | 81 | 1007.1 |
| 20260506102703 | 53 | 353 | 4.3 | 10.4 | 0.00 | 0.00 | 0.00 | 82 | 1007.0 |
| 20260506101803 | 53 | 358 | 4.3 | 8.7 | 0.00 | 0.00 | 0.00 | 83 | 1006.9 |
| 20260506100903 | 52 | 358 | 4.3 | 9.6 | 0.00 | 0.00 | 0.00 | 84 | 1007.1 |
| 20260506100004 | 52 | 1 | 4.3 | 8.7 | 0.00 | 0.00 | 0.00 | 84 | 1007.0 |
| 20260506095403 | 52 | 359 | 3.5 | 8.7 | 0.00 | 0.00 | 0.00 | 85 | 1007.2 |
| 20260506094503 | 51 | 355 | 2.6 | 7.8 | 0.00 | 0.00 | 0.00 | 86 | 1007.0 |
| 20260506093604 | 51 | 13 | 2.6 | 7.0 | 0.00 | 0.00 | 0.00 | 87 | 1007.1 |
| 20260506092704 | 52 | 8 | 3.5 | 9.6 | 0.00 | 0.00 | 0.00 | 84 | 1007.1 |
| 20260506091824 | 52 | 7 | 4.3 | 9.6 | 0.00 | 0.00 | 0.00 | 84 | 1006.9 |
| 20260506090903 | 52 | 353 | 4.3 | 10.4 | 0.00 | 0.00 | 0.00 | 82 | 1006.9 |
| 20260506090024 | 52 | 8 | 3.5 | 7.8 | 0.00 | 0.00 | 0.00 | 80 | 1006.9 |
| 20260506085403 | 52 | 7 | 3.5 | 9.6 | 0.00 | 0.00 | 0.00 | 80 | 1006.7 |
| 20260506084503 | 52 | 357 | 4.3 | 8.7 | 0.00 | 0.00 | 0.00 | 80 | 1006.8 |
| 20260506083603 | 52 | 7 | 3.5 | 7.8 | 0.00 | 0.00 | 0.00 | 82 | 1006.6 |
| 20260506082703 | 52 | 1 | 5.2 | 12.2 | 0.00 | 0.00 | 0.00 | 82 | 1006.4 |
| 20260506081803 | 52 | 360 | 5.2 | 9.6 | 0.00 | 0.00 | 0.00 | 81 | 1006.7 |
| 20260506080903 | 53 | 358 | 4.3 | 7.8 | 0.00 | 0.00 | 0.00 | 81 | 1006.5 |
| 20260506072703 | 52 | 360 | 4.3 | 10.4 | 0.00 | 0.00 | 0.00 | 82 | 1006.1 |
| 20260506071803 | 52 | 355 | 4.3 | 9.6 | 0.00 | 0.00 | 0.00 | 83 | 1006.3 |
| 20260506070903 | 52 | 9 | 4.3 | 8.7 | 0.00 | 0.00 | 0.00 | 82 | 1006.2 |
| 20260506061803 | 50 | 5 | 3.5 | 10.4 | 0.00 | 0.00 | 0.00 | 84 | 1006.0 |
| 20260506060903 | 50 | 2 | 2.6 | 6.1 | 0.00 | 0.00 | 0.00 | 86 | 1006.1 |
| 20260506050903 | 48 | 2 | 1.7 | 3.5 | 0.00 | 0.00 | 0.00 | 86 | 1005.8 |
| 20260506044503 | 48 | 5 | 1.7 | 5.2 | 0.00 | 0.00 | 0.00 | 87 | 1005.7 |
| 20260506043603 | 48 | 12 | 1.7 | 3.5 | 0.00 | 0.00 | 0.00 | 87 | 1006.1 |
| 20260506042704 | 48 | 12 | 0.9 | 2.6 | 0.00 | 0.00 | 0.00 | 87 | 1006.1 |
| 20260506041803 | 48 | 10 | 0.9 | 2.6 | 0.00 | 0.00 | 0.00 | 86 | 1006.1 |
| 20260506040924 | 48 | 11 | 1.7 | 2.6 | 0.00 | 0.00 | 0.00 | 85 | 1006.1 |
| 20260506040003 | 48 | 7 | 1.7 | 2.6 | 0.00 | 0.00 | 0.00 | 85 | 1006.2 |
| 20260506035403 | 48 | 11 | 1.7 | 2.6 | 0.00 | 0.00 | 0.00 | 85 | 1006.0 |
| 20260506034503 | 48 | 10 | 1.7 | 5.2 | 0.00 | 0.00 | 0.00 | 84 | 1006.0 |
| 20260506033603 | 49 | 10 | 1.7 | 3.5 | 0.00 | 0.00 | 0.00 | 84 | 1006.4 |
| 20260506032724 | 49 | 12 | 1.7 | 5.2 | 0.00 | 0.00 | 0.00 | 84 | 1006.1 |
| 20260506031804 | 49 | 9 | 1.7 | 3.5 | 0.00 | 0.00 | 0.00 | 84 | 1006.1 |
| 20260506030903 | 49 | 7 | 1.7 | 3.5 | 0.00 | 0.00 | 0.00 | 84 | 1006.2 |
| 20260506030003 | 49 | 6 | 2.6 | 5.2 | 0.00 | 0.00 | 0.00 | 84 | 1006.3 |
| 20260506025403 | 49 | 7 | 2.6 | 6.1 | 0.00 | 0.00 | 0.00 | 84 | 1006.3 |
| 20260506024503 | 49 | 358 | 2.6 | 5.2 | 0.00 | 0.00 | 0.00 | 85 | 1006.3 |
| 20260506023604 | 49 | 1 | 1.7 | 3.5 | 0.00 | 0.00 | 0.00 | 85 | 1006.3 |
| 20260506022703 | 48 | 10 | 1.7 | 5.2 | 0.00 | 0.00 | 0.00 | 85 | 1006.1 |
| 20260506021803 | 49 | 6 | 1.7 | 5.2 | 0.00 | 0.00 | 0.00 | 85 | 1006.2 |
| 20260506020924 | 49 | 1 | 2.6 | 6.1 | 0.00 | 0.00 | 0.00 | 85 | 1006.6 |
| 20260506020004 | 48 | 14 | 1.7 | 5.2 | 0.00 | 0.00 | 0.00 | 85 | 1006.3 |
| 20260506015403 | 48 | 10 | 1.7 | 5.2 | 0.00 | 0.00 | 0.00 | 85 | 1006.3 |
| 20260506014524 | 49 | 9 | 3.5 | 6.1 | 0.00 | 0.00 | 0.00 | 86 | 1006.3 |
| 20260506013603 | 48 | 12 | 2.6 | 6.1 | 0.00 | 0.00 | 0.00 | 86 | 1006.5 |
| 20260506012724 | 48 | 10 | 1.7 | 6.1 | 0.00 | 0.00 | 0.00 | 87 | 1006.3 |
| 20260506011803 | 48 | 14 | 1.7 | 5.2 | 0.00 | 0.00 | 0.00 | 87 | 1006.4 |
| 20260506010904 | 48 | 14 | 1.7 | 3.5 | 0.00 | 0.00 | 0.00 | 87 | 1006.6 |
| 20260506010004 | 49 | 8 | 2.6 | 5.2 | 0.00 | 0.00 | 0.00 | 87 | 1006.7 |
| 20260506005424 | 49 | 7 | 2.6 | 6.1 | 0.00 | 0.00 | 0.00 | 86 | 1006.5 |
| 20260506004503 | 49 | 13 | 1.7 | 5.2 | 0.00 | 0.00 | 0.00 | 86 | 1006.7 |
| 20260506003603 | 49 | 5 | 2.6 | 5.2 | 0.00 | 0.00 | 0.00 | 86 | 1006.6 |
| 20260506002703 | 49 | 5 | 2.6 | 6.1 | 0.00 | 0.00 | 0.00 | 85 | 1006.8 |
| 20260506001824 | 49 | 7 | 1.7 | 5.2 | 0.00 | 0.00 | 0.00 | 85 | 1006.6 |
| 20260506000904 | 50 | 10 | 2.6 | 7.0 | 0.00 | 0.00 | 0.00 | 84 | 1006.9 |
| 20260506000005 | 50 | 16 | 2.6 | 7.0 | 0.00 | 0.00 | 0.00 | 84 | 1006.7 |
| 20260505235403 | 50 | 8 | 1.7 | 6.1 | 0.00 | 0.00 | 0.00 | 85 | 1007.2 |
| 20260505234503 | 50 | 8 | 2.6 | 7.0 | 0.00 | 0.00 | 0.00 | 85 | 1007.0 |
| 20260505233604 | 50 | 8 | 2.6 | 7.8 | 0.00 | 0.00 | 0.00 | 85 | 1006.8 |
| 20260505232703 | 50 | 5 | 2.6 | 7.8 | 0.00 | 0.00 | 0.00 | 85 | 1006.9 |
| 20260505231803 | 50 | 10 | 2.6 | 7.0 | 0.00 | 0.00 | 0.00 | 86 | 1007.1 |
| 20260505230903 | 50 | 6 | 2.6 | 6.1 | 0.00 | 0.00 | 0.00 | 86 | 1006.9 |
| 20260505230003 | 50 | 13 | 2.6 | 6.1 | 0.00 | 0.00 | 0.00 | 87 | 1006.7 |
| 20260505225426 | 50 | 5 | 1.7 | 3.5 | 0.00 | 0.00 | 0.00 | 87 | 1007.0 |
| 20260505224503 | 50 | 360 | 1.7 | 3.5 | 0.00 | 0.00 | 0.00 | 87 | 1007.1 |
| 20260505223603 | 50 | 11 | 1.7 | 5.2 | 0.00 | 0.00 | 0.00 | 87 | 1007.1 |
| 20260505222704 | 50 | 4 | 1.7 | 3.5 | 0.00 | 0.00 | 0.00 | 87 | 1007.0 |
| 20260505221803 | 50 | 14 | 1.7 | 5.2 | 0.00 | 0.00 | 0.00 | 87 | 1006.9 |
| 20260505220903 | 50 | 5 | 2.6 | 5.2 | 0.00 | 0.00 | 0.00 | 86 | 1007.1 |
| 20260505220024 | 50 | 4 | 2.6 | 7.0 | 0.00 | 0.00 | 0.00 | 86 | 1007.1 |
| 20260505215424 | 50 | 3 | 2.6 | 7.0 | 0.00 | 0.00 | 0.00 | 86 | 1007.0 |
| 20260505214503 | 51 | 5 | 2.6 | 5.2 | 0.00 | 0.00 | 0.00 | 86 | 1007.0 |
| 20260505213604 | 51 | 1 | 2.6 | 6.1 | 0.00 | 0.00 | 0.00 | 86 | 1007.0 |
| 20260505212725 | 51 | 359 | 2.6 | 6.1 | 0.00 | 0.00 | 0.00 | 86 | 1007.3 |
| 20260505211803 | 51 | 3 | 2.6 | 6.1 | 0.00 | 0.00 | 0.00 | 85 | 1007.0 |
| 20260505210903 | 51 | 11 | 1.7 | 5.2 | 0.00 | 0.00 | 0.00 | 85 | 1006.6 |
| 20260505210003 | 51 | 1 | 2.6 | 7.0 | 0.00 | 0.00 | 0.00 | 85 | 1007.0 |
| 20260505205424 | 51 | 10 | 2.6 | 7.0 | 0.00 | 0.00 | 0.00 | 85 | 1007.4 |
| 20260505204504 | 51 | 2 | 2.6 | 7.0 | 0.00 | 0.00 | 0.00 | 85 | 1006.9 |
| 20260505203604 | 51 | 360 | 3.5 | 7.8 | 0.00 | 0.00 | 0.00 | 85 | 1007.0 |
| 20260505202725 | 52 | 356 | 2.6 | 7.0 | 0.00 | 0.00 | 0.00 | 85 | 1007.0 |
| 20260505201803 | 52 | 3 | 3.5 | 9.6 | 0.00 | 0.00 | 0.00 | 85 | 1006.9 |
| 20260505200903 | 52 | 6 | 3.5 | 9.6 | 0.00 | 0.00 | 0.00 | 85 | 1006.8 |
| 20260505200003 | 52 | 3 | 3.5 | 7.0 | 0.00 | 0.00 | 0.00 | 85 | 1006.8 |
| 20260505195404 | 52 | 8 | 2.6 | 6.1 | 0.00 | 0.00 | 0.00 | 85 | 1006.8 |
| 20260505194503 | 52 | 16 | 2.6 | 7.0 | 0.00 | 0.00 | 0.00 | 85 | 1006.8 |
| 20260505193603 | 52 | 2 | 3.5 | 7.0 | 0.00 | 0.00 | 0.00 | 84 | 1006.8 |
| 20260505192703 | 52 | 3 | 3.5 | 7.0 | 0.00 | 0.00 | 0.00 | 84 | 1006.6 |
| 20260505191824 | 52 | 355 | 3.5 | 6.1 | 0.00 | 0.00 | 0.00 | 83 | 1006.4 |
| 20260505190903 | 53 | 9 | 3.5 | 7.8 | 0.00 | 0.00 | 0.00 | 83 | 1006.5 |
| 20260505190003 | 53 | 8 | 3.5 | 7.0 | 0.00 | 0.00 | 0.00 | 83 | 1006.5 |
| 20260505185403 | 53 | 2 | 4.3 | 7.8 | 0.00 | 0.00 | 0.00 | 82 | 1006.6 |
| 20260505184505 | 53 | 358 | 3.5 | 7.0 | 0.00 | 0.00 | 0.00 | 82 | 1006.4 |
| 20260505183603 | 54 | 357 | 3.5 | 7.8 | 0.00 | 0.00 | 0.00 | 82 | 1006.6 |
| 20260505182703 | 54 | 6 | 3.5 | 9.6 | 0.00 | 0.00 | 0.00 | 81 | 1006.5 |
| 20260505181804 | 54 | 5 | 3.5 | 9.6 | 0.00 | 0.00 | 0.00 | 80 | 1006.3 |
| 20260505180903 | 55 | 8 | 3.5 | 7.8 | 0.00 | 0.00 | 0.00 | 79 | 1006.5 |
| 20260505180003 | 55 | 7 | 4.3 | 12.2 | 0.00 | 0.00 | 0.00 | 79 | 1006.4 |
| 20260505175403 | 55 | 4 | 4.3 | 10.4 | 0.00 | 0.00 | 0.00 | 78 | 1006.3 |